User: anonymous   Login
Location: Unspecified
(0.0000°N, 0.0000°E)
Time: 11:02:42
(UTC+00:00)
Language:

AO-85 - Orbit

View from above orbital plane
View from above orbital plane
View from above satellite
View from above satellite

Ground track
Ground track

The orbit data is extracted from the following two-line orbital elements,

1 40967U 15058D   17263.19649613  .00000297  00000-0  52980-4 0 00956
2 40967 064.7762 290.6711 0177485 043.1039 318.3805 14.75495999013811
Epoch (UTC): 20 September 2017 04:42:57
Eccentricity: 0.0177485
inclination: 64.7762°
perigee height: 519 km
apogee height: 768 km
right ascension of ascending node: 290.6711°
argument of perigee: 43.1039°
revolutions per day: 14.75495999
mean anomaly at epoch: 318.3805°
orbit number at epoch: 1381

The dashed part of the orbit path shows where the satellite is in the earth's shadow,  

DLR